This demonstration page uses our WeatherBlox Daily Observations layout. Learn more.

Left ArrowRight Arrow

Hourly Observations for September 26, 2017

Temp ( °F °C ) Dew Point ( °F °C ) Humidity (%) Winds ( mph kmh ) Pressure ( in mb ) Visibility ( mi km ) Precip ( " mm )
12:12 am 00:12 Clear 64 18 61 16 88 88 N N/A 30.00 1016 10 16 N/A
12:32 am 00:32 Clear 64 18 61 16 88 88 SSE 5 7 30.00 1016 10 16 N/A
12:51 am 00:51 Clear 66 19 61 16 83 83 SSE 5 7 30.00 1016 10 16 N/A
1:12 am 01:12 Clear 64 18 61 16 88 88 SSE 3 6 30.00 1016 10 16 N/A
1:32 am 01:32 Clear 66 19 61 16 83 83 SSE 5 7 30.00 1016 10 16 N/A
1:51 am 01:51 Clear 64 18 61 16 88 88 N N/A 30.00 1016 10 16 N/A
2:12 am 02:12 Clear 64 18 61 16 88 88 SSE 3 6 30.00 1016 10 16 N/A
2:32 am 02:32 Clear 64 18 61 16 88 88 S 3 6 30.00 1016 10 16 N/A
2:52 am 02:52 Clear 64 18 61 16 88 88 SSE 5 7 30.00 1016 10 16 N/A
3:12 am 03:12 Clear 64 18 61 16 88 88 S 3 6 30.00 1016 10 16 N/A
3:32 am 03:32 Clear 63 17 61 16 94 94 N N/A 30.00 1016 10 16 N/A
3:52 am 03:52 Clear 64 18 61 16 88 88 SSE 3 6 30.00 1016 10 16 N/A
4:12 am 04:12 Clear 63 17 61 16 94 94 SSE 3 6 30.00 1016 10 16 N/A
4:32 am 04:32 Clear 63 17 61 16 94 94 N N/A 30.00 1016 10 16 N/A
4:52 am 04:52 Clear 63 17 63 17 100 100 SSE 3 6 30.00 1016 10 16 N/A
5:12 am 05:12 Clear 64 18 63 17 94 94 SSE 3 6 30.00 1016 10 16 N/A
5:32 am 05:32 Clear 63 17 61 16 94 94 N N/A 30.00 1016 10 16 N/A
5:52 am 05:52 Clear 61 16 61 16 100 100 N N/A 30.00 1016 10 16 N/A
6:12 am 06:12 Clear 61 16 59 15 94 94 N N/A 30.00 1016 7 11 N/A
6:32 am 06:32 Clear 61 16 61 16 100 100 N N/A 30.00 1016 10 16 N/A
6:52 am 06:52 Clear 61 16 59 15 94 94 N N/A 30.00 1016 10 16 N/A
7:12 am 07:12 Clear 61 16 61 16 100 100 N N/A 30.03 1017 7 11 N/A
7:32 am 07:32 Clear 63 17 61 16 94 94 N N/A 30.03 1017 10 16 N/A
7:52 am 07:52 Sunny 63 17 61 16 94 94 N N/A 30.03 1017 10 16 N/A
8:12 am 08:12 Sunny 63 17 63 17 100 100 S 3 6 30.03 1017 10 16 N/A
8:32 am 08:32 Sunny 64 18 63 17 94 94 N N/A 30.03 1017 10 16 N/A
8:52 am 08:52 Sunny 66 19 64 18 94 94 N N/A 30.03 1017 10 16 N/A
9:12 am 09:12 Sunny 68 20 64 18 88 88 N N/A 30.03 1017 10 16 N/A
9:32 am 09:32 Sunny 70 21 64 18 83 83 N N/A 30.00 1016 10 16 N/A
9:52 am 09:52 Sunny 73 23 66 19 78 78 N N/A 30.00 1016 10 16 N/A
10:12 am 10:12 Sunny 75 24 66 19 74 74 N N/A 30.00 1016 10 16 N/A
10:32 am 10:32 Sunny 79 26 66 19 65 65 N N/A 30.00 1016 10 16 N/A
10:52 am 10:52 Sunny 81 27 66 19 62 62 SSW 5 7 30.00 1016 10 16 N/A
11:11 am 11:11 Sunny 82 28 66 19 58 58 SSW 3 6 30.00 1016 10 16 N/A
11:32 am 11:32 Sunny 82 28 66 19 58 58 WSW 6 9 30.00 1016 10 16 N/A
11:52 am 11:52 Sunny 84 29 66 19 55 55 SW 6 9 30.00 1016 10 16 N/A
12:12 pm 12:12 Sunny 84 29 64 18 51 51 SW 5 7 30.00 1016 10 16 N/A
12:32 pm 12:32 Sunny 84 29 64 18 51 51 SW 5 7 30.00 1016 10 16 N/A
12:52 pm 12:52 Sunny 86 30 64 18 49 49 SW 6 9 30.00 1016 10 16 N/A
1:12 pm 13:12 Sunny 86 30 64 18 49 49 S 5 7 30.00 1016 10 16 N/A
1:32 pm 13:32 Sunny 84 29 64 18 51 51 SW 3 6 30.00 1016 10 16 N/A
1:52 pm 13:52 Sunny 88 31 63 17 43 43 SW 5 7 29.97 1015 10 16 N/A
2:12 pm 14:12 Sunny 86 30 63 17 46 46 SW 7 11 30.00 1016 10 16 N/A
2:32 pm 14:32 Sunny 88 31 63 17 43 43 SSW 5 7 29.94 1014 10 16 N/A
2:52 pm 14:52 Sunny 88 31 61 16 40 40 N N/A 29.94 1014 10 16 N/A
3:12 pm 15:12 Sunny 90 32 63 17 41 41 SSW 8 13 29.94 1014 10 16 N/A
3:32 pm 15:32 Sunny 90 32 61 16 38 38 SSE 7 11 29.94 1014 10 16 N/A
3:52 pm 15:52 Sunny 90 32 61 16 38 38 SSW 6 9 29.91 1013 10 16 N/A
4:12 pm 16:12 Sunny 90 32 61 16 38 38 SSW 7 11 29.91 1013 10 16 N/A
4:32 pm 16:32 Sunny 90 32 61 16 38 38 N N/A 29.91 1013 10 16 N/A
4:52 pm 16:52 Sunny 90 32 63 17 41 41 N N/A 29.91 1013 10 16 N/A
5:12 pm 17:12 Sunny 90 32 61 16 38 38 W 5 7 29.91 1013 10 16 N/A
5:32 pm 17:32 Sunny 90 32 61 16 38 38 SW 7 11 29.91 1013 10 16 N/A
5:52 pm 17:52 Sunny 88 31 61 16 40 40 SSW 3 6 29.91 1013 10 16 N/A
6:12 pm 18:12 Sunny 88 31 61 16 40 40 N N/A 29.91 1013 10 16 N/A
6:32 pm 18:32 Sunny 86 30 61 16 43 43 WSW 5 7 29.94 1014 10 16 N/A
6:52 pm 18:52 Sunny 86 30 61 16 43 43 N N/A 29.94 1014 10 16 N/A
7:12 pm 19:12 Sunny 84 29 61 16 45 45 N N/A 29.94 1014 10 16 N/A
7:32 pm 19:32 Partly Cloudy 82 28 63 17 51 51 WSW 5 7 29.94 1014 10 16 N/A
7:52 pm 19:52 Mostly Cloudy 79 26 63 17 58 58 WSW 3 6 29.94 1014 10 16 N/A
8:12 pm 20:12 Mostly Cloudy 75 24 64 18 69 69 N N/A 29.94 1014 10 16 N/A
8:32 pm 20:32 Partly Cloudy 73 23 64 18 74 74 N N/A 29.94 1014 10 16 N/A
8:52 pm 20:52 Partly Cloudy 72 22 64 18 78 78 N N/A 29.94 1014 10 16 N/A
9:12 pm 21:12 Clear 72 22 64 18 78 78 SSW 3 6 29.94 1014 10 16 N/A
9:32 pm 21:32 Clear 70 21 64 18 83 83 N N/A 29.94 1014 10 16 N/A
9:52 pm 21:52 Clear 68 20 64 18 88 88 N N/A 30.00 1016 10 16 N/A
10:12 pm 22:12 Clear 70 21 63 17 78 78 N N/A 29.97 1015 10 16 N/A
10:32 pm 22:32 Clear 70 21 63 17 78 78 N N/A 29.97 1015 10 16 N/A
10:52 pm 22:52 Clear 68 20 63 17 83 83 N N/A 30.00 1016 10 16 N/A
11:12 pm 23:12 Clear 66 19 63 17 88 88 N N/A 30.00 1016 10 16 N/A
11:32 pm 23:32 Clear 68 20 63 17 83 83 N N/A 30.00 1016 10 16 N/A
11:52 pm 23:52 Clear 66 19 63 17 88 88 N N/A 30.00 1016 10 16 N/A

Powered by AerisWeather